FENGYUN 1C DEB, 30150

Orbit data source: Space-Track

FENGYUN 1C DEB, 30150 is space debris in SSO originally from a launch on Mon, 10 May 1999 UTC launched from the Taiyaun Space Center, China (TSC). Fengyun 1C debris stems from the Chinese weather satellite Fengyun-1C, which was intentionally destroyed by a Chinese anti-satellite missile in 2007. This event dramatically increased the amount of space debris, with thousands of trackable fragments posing hazards to satellites and human spaceflight. The Fengyun 1C debris cloud has become a focal point in discussions about space sustainability and the need for international regulations to prevent the creation of new debris.

Loading next visibility...
Identifier
30150, 1999-025TF
Orbit
SSO
Country
Flag of CNCN / PRC
Related business
Manufacturer
Unknown
Mission
Spacecraft
Bus & Motor
Unknown
Mass
Unknown
Launch date (UTC)
1999-05-10 (26 years ago)
Launch vehicle
Unknown
Launch site
Taiyaun Space Center, China (TSC)
Object type
Payload
Rocket body
Debris
Shape & HBR
Unknown shape, 0.1 m
Radar Cross Section
Small (<0.1 m²)

Expand to show TLE details & history
Last TLE update: 23 hours ago

TLE from 23 hours ago
0 FENGYUN 1C DEB
1 30150U 99025TF  25288.65029351  .00000979  00000-0  80669-3 0  9997
2 30150  98.9905  66.8754 0148260 133.0223 252.3399 13.86489165946533
Epoch: 2025-10-15T15:36Z
TLE epoch observation values (Epoch: 2025-10-15T15:36:25.359Z)
Latitude
23.46448°
Longitude
164.43089°
Altitude
978.131 km
Speed
7.347 km/s
True Right ascension
04h 11m 49s
True Declination
23° 20' 34"
Sunlit
Object was in full shadow at epoch
Visualization orbit readout
Latitude
Unknown
Longitude
Unknown
Altitude
Unknown
Speed
Unknown
Apparent Right ascension
Unknown
Apparent Declination
Unknown
Sunlit
N/A
Visualization observer readout
Local Sidereal Time
08:55:31
Azimuth
Unknown
Elevation
Unknown
Doppler factor
Unknown
Orbital elements
Apogee altitude
1,046.648 km
Perigee altitude
829.705 km
Semi-major axis
7,316.313 km
Eccentricity
0.01483
Inclination
98.9905°
RAAN
66.8754°
Arg. of periapsis
133.0223°
True anomaly
250.7303°
Mean anomaly
252.3399°
Eccentric anomaly
251.53417°
Mean motion
3.4682 °/min
Orbital period
103.8 mins
BSTAR
0.00080669
Loading maneuver chart data...
Computing Atmospheric mass density...

Documentation

Showing up to 5 results
|